DW6376 Weather Reports


Display with metric or nautical units.
time (UTC)temp
F
wind
direction
speed
MPH
gust
MPH
rain 1hr
in
rain 24hr
in
rain mn
in
humidity
%
barometer
mb
20220629084536 77 200 0.0 0.0 0.00 0.00 0.00 36 1010.8
20220629083033 77 200 0.0 0.0 0.00 0.00 0.00 36 1010.9
20220629081510 77 200 0.0 0.0 0.00 0.00 0.00 36 1010.9
20220629080010 77 200 0.0 0.0 0.00 0.00 0.00 36 1010.9
20220629074557 77 200 0.0 0.0 0.00 0.00 0.00 36 1011.0
20220629073052 77 200 0.0 0.0 0.00 0.00 0.00 36 1011.1
20220629071534 77 200 0.0 0.0 0.00 0.00 0.00 36 1011.1
20220629070039 77 200 0.0 0.0 0.00 0.00 0.00 36 1011.1
20220629064521 77 200 0.0 0.0 0.00 0.00 0.00 36 1011.3
20220629063015 77 200 0.0 0.0 0.00 0.00 0.00 36 1011.4
20220629061553 77 200 0.0 0.0 0.00 0.00 0.00 37 1011.4
20220629060053 77 200 0.0 0.0 0.00 0.00 0.00 37 1011.5
20220629054535 77 200 0.0 0.0 0.00 0.00 0.00 37 1011.7
20220629053035 77 200 0.0 0.0 0.00 0.00 0.00 37 1011.6
20220629051533 77 200 0.0 0.0 0.00 0.00 0.00 38 1011.7
20220629050023 77 200 0.0 0.0 0.00 0.00 0.00 38 1012.0
20220629044524 77 200 0.0 0.0 0.00 0.00 0.00 39 1012.5
20220629043022 78 200 0.0 0.0 0.00 0.00 0.00 39 1013.4
20220629041523 79 200 0.0 0.0 0.00 0.00 0.00 40 1013.8
20220629040022 79 200 0.0 0.0 0.00 0.00 0.00 32 1012.6
20220629034520 79 200 0.0 0.0 0.00 0.00 0.00 31 1011.7
20220629033023 79 200 0.0 0.0 0.00 0.00 0.00 29 1010.8
20220629031600 79 200 0.0 0.0 0.00 0.00 0.00 29 1010.7
20220629030101 79 205 0.0 0.0 0.00 0.00 0.00 32 1010.9
20220629024548 78 205 0.0 0.0 0.00 0.00 0.00 31 1010.6
20220629023047 78 205 0.0 0.0 0.00 0.00 0.00 31 1010.6
20220629021547 78 205 0.0 0.0 0.00 0.00 0.00 31 1010.6
20220629020047 78 205 0.0 0.0 0.00 0.00 0.00 31 1010.6
20220629014545 78 205 0.0 0.0 0.00 0.00 0.00 31 1010.9
20220629013043 78 205 0.0 0.0 0.00 0.00 0.00 31 1010.9
20220629011545 78 205 0.0 0.0 0.00 0.00 0.00 31 1011.1
20220629010046 78 205 0.0 0.0 0.00 0.00 0.00 30 1011.1
20220629004523 78 205 0.0 0.0 0.00 0.00 0.00 30 1011.3
20220629003027 79 205 0.0 0.0 0.00 0.00 0.00 30 1011.6
20220629001505 79 205 0.0 0.0 0.00 0.00 0.00 30 1011.5
20220629000010 79 205 0.0 0.0 0.00 0.00 0.00 29 1012.0
20220628234547 79 205 0.0 0.0 0.00 0.00 0.00 29 1013.1
20220628233046 79 205 0.0 0.0 0.00 0.00 0.00 29 1012.2
20220628231528 79 205 0.0 0.0 0.00 0.00 0.00 29 1011.5
20220628230027 79 205 0.0 0.0 0.00 0.00 0.00 29 1011.2
20220628224510 78 205 0.0 0.0 0.00 0.00 0.00 31 1011.2
20220628223009 78 205 0.0 0.0 0.00 0.00 0.00 32 1011.4
20220628221546 78 205 0.0 0.0 0.00 0.00 0.00 33 1011.8
20220628220049 78 205 0.0 0.0 0.00 0.00 0.00 34 1012.1
20220628214524 78 205 0.0 0.0 0.00 0.00 0.00 35 1012.4
20220628213021 77 205 0.0 0.0 0.00 0.00 0.00 35 1013.0
20220628211502 77 205 0.0 0.0 0.00 0.00 0.00 35 1013.1
20220628210100 77 205 0.0 0.0 0.00 0.00 0.00 33 1013.2
20220628204607 77 205 0.0 0.0 0.00 0.00 0.00 33 1013.3
20220628203041 77 205 0.0 0.0 0.00 0.00 0.00 33 1013.2
20220628201539 77 205 0.0 0.0 0.00 0.00 0.00 33 1013.4
20220628200020 77 205 0.0 0.0 0.00 0.00 0.00 33 1013.7
20220628194518 77 205 0.0 0.0 0.00 0.00 0.00 33 1014.1
20220628193058 76 205 0.0 0.0 0.00 0.00 0.00 33 1014.4
20220628191559 76 205 0.0 0.0 0.00 0.00 0.00 33 1014.7
20220628190038 76 205 0.0 0.0 0.00 0.00 0.00 33 1014.7
20220628184537 76 205 0.0 0.0 0.00 0.00 0.00 33 1015.1
20220628183019 76 205 0.0 0.0 0.00 0.00 0.00 33 1015.3
20220628181529 76 205 0.0 0.0 0.00 0.00 0.00 33 1015.5
20220628180102 76 205 0.0 0.0 0.00 0.00 0.00 33 1015.4
20220628174600 76 205 0.0 0.0 0.00 0.00 0.00 33 1015.4
20220628173041 75 205 0.0 0.0 0.00 0.00 0.00 33 1015.6
20220628171544 75 205 0.0 0.0 0.00 0.00 0.00 32 1015.7
20220628170023 75 205 0.0 0.0 0.00 0.00 0.00 32 1015.8
20220628164530 75 205 0.0 0.0 0.00 0.00 0.00 32 1015.8
20220628163015 75 205 0.0 0.0 0.00 0.00 0.00 31 1015.6
20220628161513 75 205 0.0 0.0 0.00 0.00 0.00 31 1015.5
20220628160010 75 205 0.0 0.0 0.00 0.00 0.00 31 1015.4
20220628154513 75 205 0.0 0.0 0.00 0.00 0.00 31 1015.8
20220628153013 75 205 0.0 0.0 0.00 0.00 0.00 31 1016.0
20220628151509 75 205 0.0 0.0 0.00 0.00 0.00 31 1016.1
20220628150007 75 205 0.0 0.0 0.00 0.00 0.00 31 1016.2
20220628144508 75 205 0.0 0.0 0.00 0.00 0.00 30 1016.3
20220628143051 74 205 0.0 0.0 0.00 0.00 0.00 30 1016.3
20220628141551 74 205 0.0 0.0 0.00 0.00 0.00 30 1016.2
20220628140032 74 205 0.0 0.0 0.00 0.00 0.00 30 1016.0
20220628134530 74 205 0.0 0.0 0.00 0.00 0.00 30 1015.9
20220628133013 74 205 0.0 0.0 0.00 0.00 0.00 30 1015.8
20220628131510 74 205 0.0 0.0 0.00 0.00 0.00 30 1015.6
20220628130053 74 205 0.0 0.0 0.00 0.00 0.00 30 1015.6
20220628124557 74 205 0.0 0.0 0.00 0.00 0.00 30 1015.6
20220628123034 74 205 0.0 0.0 0.00 0.00 0.00 30 1015.8
20220628121533 74 205 0.0 0.0 0.00 0.00 0.00 30 1015.7
20220628120014 74 205 0.0 0.0 0.00 0.00 0.00 30 1015.7
20220628114513 75 205 0.0 0.0 0.00 0.00 0.00 30 1015.6
20220628113054 75 205 0.0 0.0 0.00 0.00 0.00 30 1015.3
20220628111553 75 205 0.0 0.0 0.00 0.00 0.00 31 1015.2
20220628110046 75 205 0.0 0.0 0.00 0.00 0.00 30 1015.0
20220628104535 75 205 0.0 0.0 0.00 0.00 0.00 30 1015.0
20220628103021 75 205 0.0 0.0 0.00 0.00 0.00 30 1014.9
20220628101519 75 205 0.0 0.0 0.00 0.00 0.00 30 1015.0
20220628100019 75 205 0.0 0.0 0.00 0.00 0.00 30 1015.1
20220628094523 75 205 0.0 0.0 0.00 0.00 0.00 30 1015.1
20220628093017 76 205 0.0 0.0 0.00 0.00 0.00 29 1015.0
20220628091516 76 205 0.0 0.0 0.00 0.00 0.00 29 1015.1
20220628090019 76 205 0.0 0.0 0.00 0.00 0.00 29 1015.2